Location: Alafon
(8.4500°N, 4.2333°E)
Time: 17:14:05
(UTC+00:00)

SR - Pass Details

Date: 03 August 2021
Orbit: 581 x 874 km, 66.7° (Epoch: 18 September)

Event Time Altitude Azimuth Distance (km) Brightness Sun altitude
Rises 05:19:57 0° 242° (WSW) 3,449 - -4.4°
Exits shadow 05:21:37 - 251° (WSW) 3,009 ? -4.0°
Reaches altitude 10° 05:24:05 10° 270° (W) 2,517 ? -3.4°
Maximum altitude 05:26:27 12° 294° (WNW) 2,335 ? -2.9°
Drops below altitude 10° 05:28:48 10° 318° (NW) 2,499 ? -2.3°
Sets 05:32:55 0° 346° (NNW) 3,399 ? -1.3°
